EUTELSAT 21B

Last updated on Thu Aug 13 2026 00:02:59 GMT+0000 (Coordinated Universal Time)

1 38992U 12062B 26224.57634148 .00000113 00000+0 00000+0 0 9999 2 38992 0.0708 339.8009 0003129 163.3291 46.9991 1.00275714 50392
UTC large
Height (km)
Speed (km/s)
/
Latitude / Longitude
Inclination (degrees)
Orbital Period (minutes)
Azimuth
Elevation
Range (km)
Doppler Factor

Next 0 passes for location: London (51.5072 / 0.1276)

No passes found over London.
EUTELSAT 21B